Horseshoe Bay, TX

2:10 AM MDT on May 27, 2017 (GMT -0600)
Horseshoe Bay

Weather History for KDZB - December, 2013

Change the Weather History Date:

Sunday, December 15, 2013

  Actual Average (KBMQ) Record (KBMQ)
Temperature  
Mean Temperature 44 °F -  
Max Temperature 62 °F 57 °F 75 °F (2006)
Min Temperature 26 °F 35 °F 25 °F (2004)
Degree Days  
Heating Degree Days 21    
Moisture  
Dew Point 28 °F    
Average Humidity 61    
Maximum Humidity 100    
Minimum Humidity 25    
Precipitation  
Precipitation 0.00 in - - ()
Sea Level Pressure  
Sea Level Pressure 30.31 in    
Wind  
Wind Speed 1 mph (SSW)    
Max Wind Speed 7 mph    
Max Gust Speed -    
Visibility 10 miles    
Events      
Averages and records for this station are not official NWS values.
T = Trace of Precipitation, MM = Missing Value Source: NWS Daily Summary

Daily Weather History Graph

Daily Weather History Graph

Search for Another Location

Airport or City:

Trip Planner

Search our weather history database for the weather conditions in past years. The results will help you decide how hot, cold, wet, or windy it might be!

Date:

Astronomy

Dec. 15, 2013 Rise Set
Actual Time 6:23 AM MST 4:34 PM MST
Civil Twilight 5:56 AM MST 5:00 PM MST
Nautical Twilight 5:26 AM MST 5:30 PM MST
Astronomical Twilight 4:57 AM MST 6:00 PM MST
Moon 3:35 PM MST (12/15) 4:45 AM MST (12/15)
Length of Visible Light 11h 04m
Length of Day
10h 11m
Waxing Gibbous, 98% of the Moon is Illuminated
Dec 15
Waxing Gibbous
Dec 17
Full
Dec 25
Last Quarter
Jan 1
New
Jan 7
First Quarter

Hourly Weather History & Observations

Time (MST) Temp. Windchill Dew Point Humidity Pressure Visibility Wind Dir Wind Speed Gust Speed Precip Events Conditions
12:15 AM 36.3 °F 33.7 °F 27.1 °F 69% 30.35 in 10.0 mi West 3.5 mph - N/A   Clear
12:35 AM 35.8 °F - 27.0 °F 70% 30.34 in 10.0 mi Calm Calm - N/A   Clear
12:55 AM 34.0 °F 31.0 °F 26.4 °F 74% 30.34 in 10.0 mi West 3.5 mph - N/A   Clear
1:15 AM 32.0 °F - 26.1 °F 79% 30.34 in 10.0 mi Calm Calm - N/A   Clear
1:35 AM 31.1 °F 27.7 °F 25.9 °F 81% 30.33 in 10.0 mi West 3.5 mph - N/A   Clear
1:55 AM 31.5 °F - 26.2 °F 81% 30.33 in 10.0 mi Calm Calm - N/A   Clear
2:15 AM 30.2 °F - 25.7 °F 83% 30.33 in 10.0 mi Calm Calm - N/A   Clear
2:35 AM 28.9 °F - 25.0 °F 85% 30.33 in 10.0 mi Calm Calm - N/A   Clear
2:55 AM 28.0 °F - 25.3 °F 90% 30.33 in 10.0 mi Calm Calm - N/A   Clear
3:15 AM 28.0 °F - 26.2 °F 93% 30.33 in 10.0 mi Calm Calm - N/A   Clear
3:35 AM 27.9 °F - 26.6 °F 95% 30.33 in 10.0 mi Calm Calm - N/A   Clear
3:55 AM 27.3 °F - 26.6 °F 97% 30.32 in 10.0 mi Calm Calm - N/A   Clear
4:15 AM 27.3 °F - 27.3 °F 100% 30.33 in 10.0 mi Calm Calm - N/A   Clear
4:35 AM 29.3 °F - 29.3 °F 100% 30.33 in 10.0 mi Calm Calm - N/A   Clear
4:55 AM 29.1 °F - 27.3 °F 93% 30.33 in 10.0 mi Calm Calm - N/A   Clear
5:15 AM 28.4 °F - 26.2 °F 92% 30.33 in 10.0 mi Calm Calm - N/A   Clear
5:35 AM 27.3 °F - 25.7 °F 94% 30.33 in 10.0 mi Calm Calm - N/A   Clear
5:55 AM 26.6 °F - 26.2 °F 99% 30.34 in 10.0 mi Calm Calm - N/A   Clear
6:15 AM 26.4 °F - 26.4 °F 100% 30.34 in 10.0 mi Calm Calm - N/A   Clear
6:35 AM 27.1 °F - 27.1 °F 100% 30.36 in 10.0 mi Calm Calm - N/A   Clear
6:55 AM 28.4 °F - 28.4 °F 100% 30.37 in 10.0 mi Calm Calm - N/A   Clear
7:15 AM 32.0 °F - 31.8 °F 99% 30.37 in 10.0 mi Calm Calm - N/A   Clear
7:35 AM 35.4 °F - 29.3 °F 78% 30.37 in 10.0 mi Calm Calm - N/A   Clear
7:55 AM 37.2 °F 33.6 °F 29.1 °F 73% 30.38 in 10.0 mi West 4.6 mph - N/A   Clear
8:15 AM 39.6 °F - 29.5 °F 67% 30.38 in 10.0 mi Calm Calm - N/A   Clear
8:35 AM 42.4 °F - 30.7 °F 63% 30.39 in 10.0 mi Calm Calm - N/A   Clear
8:55 AM 44.8 °F 43.3 °F 30.4 °F 57% 30.39 in 10.0 mi WNW 3.5 mph - N/A   Clear
9:15 AM 47.8 °F - 28.9 °F 48% 30.39 in 10.0 mi West 3.5 mph - N/A   Clear
9:35 AM 49.6 °F - 29.7 °F 46% 30.39 in 10.0 mi Calm Calm - N/A   Clear
9:55 AM 52.2 °F - 29.7 °F 42% 30.38 in 10.0 mi Calm Calm - N/A   Clear
10:15 AM 53.2 °F - 27.0 °F 36% 30.37 in 10.0 mi Calm Calm - N/A   Clear
10:35 AM 54.9 °F - 27.0 °F 34% 30.36 in 10.0 mi Calm Calm - N/A   Clear
10:55 AM 55.6 °F - 29.3 °F 37% 30.36 in 10.0 mi Calm Calm - N/A   Clear
11:15 AM 57.4 °F - 29.8 °F 35% 30.34 in 10.0 mi Calm Calm - N/A   Clear
11:35 AM 58.3 °F - 28.9 °F 33% 30.33 in 10.0 mi Calm Calm - N/A   Clear
11:55 AM 58.1 °F - 29.7 °F 34% 30.32 in 10.0 mi NW 3.5 mph - N/A   Clear
12:15 PM 59.2 °F - 28.6 °F 31% 30.31 in 10.0 mi Calm Calm - N/A   Clear
12:35 PM 59.2 °F - 28.2 °F 31% 30.30 in 10.0 mi NNW 3.5 mph - N/A   Clear
12:55 PM 60.1 °F - 27.9 °F 29% 30.29 in 10.0 mi Calm Calm - N/A   Clear
1:15 PM 60.1 °F - 27.5 °F 29% 30.28 in 10.0 mi Calm Calm - N/A   Clear
1:35 PM 61.2 °F - 27.9 °F 28% 30.27 in 10.0 mi Calm Calm - N/A   Clear
1:55 PM 61.3 °F - 25.9 °F 26% 30.27 in 10.0 mi Calm Calm - N/A   Clear
2:15 PM 61.2 °F - 25.3 °F 26% 30.27 in 10.0 mi Calm Calm - N/A   Clear
2:35 PM 62.1 °F - 25.5 °F 25% 30.26 in 10.0 mi WNW 3.5 mph - N/A   Clear
2:55 PM 61.0 °F - 25.7 °F 26% 30.26 in 10.0 mi Calm Calm - N/A   Clear
3:15 PM 61.5 °F - 26.1 °F 26% 30.27 in 10.0 mi Calm Calm - N/A   Clear
3:35 PM 60.1 °F - 26.2 °F 28% 30.27 in 10.0 mi Calm Calm - N/A   Clear
3:55 PM 59.7 °F - 26.4 °F 28% 30.27 in 10.0 mi NE 3.5 mph - N/A   Clear
4:15 PM 57.7 °F - 28.4 °F 33% 30.27 in 10.0 mi Calm Calm - N/A   Clear
4:35 PM 53.1 °F - 29.7 °F 41% 30.26 in 10.0 mi ESE 3.5 mph - N/A   Clear
4:55 PM 49.6 °F - 30.6 °F 48% 30.26 in 10.0 mi Calm Calm - N/A   Clear
5:15 PM 45.3 °F - 32.0 °F 60% 30.26 in 10.0 mi Calm Calm - N/A   Clear
5:35 PM 46.4 °F 43.5 °F 31.1 °F 55% 30.25 in 10.0 mi SSE 5.8 mph - N/A   Clear
5:55 PM 46.4 °F 44.3 °F 31.1 °F 55% 30.26 in 10.0 mi SSE 4.6 mph - N/A   Clear
6:15 PM 45.7 °F 44.4 °F 31.1 °F 57% 30.26 in 10.0 mi SSE 3.5 mph - N/A   Clear
6:35 PM 45.7 °F 42.7 °F 31.1 °F 57% 30.26 in 10.0 mi SSE 5.8 mph - N/A   Clear
6:55 PM 46.0 °F 43.9 °F 31.1 °F 56% 30.27 in 10.0 mi SSE 4.6 mph - N/A   Clear
7:15 PM 45.0 °F 43.5 °F 31.1 °F 58% 30.27 in 10.0 mi South 3.5 mph - N/A   Clear
7:35 PM 43.9 °F 41.3 °F 31.1 °F 61% 30.28 in 10.0 mi SSE 4.6 mph - N/A   Clear
7:55 PM 43.9 °F 41.3 °F 31.1 °F 61% 30.28 in 10.0 mi South 4.6 mph - N/A   Clear
8:15 PM 45.1 °F 41.4 °F 31.1 °F 58% 30.28 in 10.0 mi South 6.9 mph - N/A   Clear
8:35 PM 46.4 °F 43.5 °F 30.9 °F 55% 30.29 in 10.0 mi South 5.8 mph - N/A   Clear
8:55 PM 46.4 °F 44.3 °F 30.6 °F 54% 30.29 in 10.0 mi South 4.6 mph - N/A   Clear
9:15 PM 46.2 °F 42.7 °F 30.2 °F 54% 30.28 in 10.0 mi South 6.9 mph - N/A   Clear
9:35 PM 45.9 °F 42.9 °F 30.2 °F 54% 30.28 in 10.0 mi South 5.8 mph - N/A   Clear
9:55 PM 45.1 °F - 30.2 °F 56% 30.29 in 10.0 mi Calm Calm - N/A   Clear
10:15 PM 41.9 °F - 30.7 °F 65% 30.29 in 10.0 mi Calm Calm - N/A   Clear
10:35 PM 39.2 °F - 30.4 °F 71% 30.29 in 10.0 mi Calm Calm - N/A   Clear
10:55 PM 36.7 °F - 29.7 °F 76% 30.28 in 10.0 mi Calm Calm - N/A   Clear
11:15 PM 34.9 °F - 29.1 °F 79% 30.28 in 10.0 mi Calm Calm - N/A   Clear
11:35 PM 33.1 °F - 28.9 °F 85% 30.28 in 10.0 mi Calm Calm - N/A   Clear
11:55 PM 32.7 °F - 28.6 °F 85% 30.27 in 10.0 mi Calm Calm - N/A   Clear